Regional Weather Roundup
Issued by NWS

Home | Current Version | Previous Version | Graphics & Text | Print | Product List | Glossary On
Versions: 1 2 3 4 5 6 7 8 9 10 11 12 13 14 15 16 17 18 19 20 21 22 23 24 25 26 27 28 29 30 31 32 33 34 35 36 37 38 39 40 41 42 43 44 45 46 47 48 49 50
000
ASUS43 KIND 230559
RWRIN

WEATHER ROUNDUP FOR INDIANA
NATIONAL WEATHER SERVICE INDIANAPOLIS IN
200 AM EDT THU OCT 23 2014

NOTE: "FAIR" INDICATES FEW OR NO CLOUDS BELOW 12,000 FEET WITH NO
SIGNIFICANT WEATHER AND/OR OBSTRUCTIONS TO VISIBILITY.

* - STATION DOES NOT REPORT WEATHER SUCH AS PRECIPITATION OR FOG.

+ - STATION NOT QUALITY CONTROLLED BY THE NATIONAL WEATHER SERVICE.
    USE DATA WITH CAUTION...ESPECIALLY DEWPOINT AND RELATIVE
    HUMIDITY OBSERVATIONS.

INZ001>003-010>013-019-020-230700-
NORTHWEST INDIANA

CITY           SKY/WX    TMP DP  RH WIND       PRES   REMARKS
VALPARAISO     NOT AVBL

$$

LMZ046-743>745-230700-
SOUTHERN LAKE MICHIGAN

STATION/POSITION TIME  TEMP WIND        PRES
                       AIR  DIR/SP/G
                 (UTC) (F)  (DEG/KT/KT) (MB)
MICHIGAN CITY    0500   41  120/  8/  9   N/A

$$

INZ004-005-014>016-021>024-230700-
NORTH CENTRAL INDIANA

CITY           SKY/WX    TMP DP  RH WIND       PRES   REMARKS
GOSHEN         FOG       32  31  96 CALM      30.28S VSB 1/4
6HR MIN TEMP:  32; 6HR MAX TEMP:  42;

SOUTH BEND     CLEAR     37  33  85 CALM      30.29S FOG
6HR MIN TEMP:  36; 6HR MAX TEMP:  48;


$$

INZ006>009-017-018-025>027-230700-
NORTHEAST INDIANA

CITY           SKY/WX    TMP DP  RH WIND       PRES   REMARKS
ANGOLA *+      CLOUDY    30  16  55 CALM      30.28S VSB 1/4
FORT WAYNE     CLEAR     35  33  92 CALM      30.29S
6HR MIN TEMP:  34; 6HR MAX TEMP:  41;


$$

INZ028-029-035-036-043>045-051>053-230700-
WEST CENTRAL INDIANA

CITY           SKY/WX    TMP DP  RH WIND       PRES   REMARKS
GREENCASTLE +  CLEAR     39  37  93 CALM      30.28R
LAFAYETTE      CLEAR     38  37  97 CALM      30.28R
6HR MIN TEMP:  37; 6HR MAX TEMP:  46;

TERRE HAUTE    CLEAR     37  36  96 CALM      30.27R
6HR MIN TEMP:  37; 6HR MAX TEMP:  48;


$$

INZ030>032-037>040-046>048-054>057-064-065-230700-
CENTRAL INDIANA

CITY           SKY/WX    TMP DP  RH WIND       PRES   REMARKS
INDIANAPOLIS   CLEAR     42  38  85 E3        30.27R
6HR MIN TEMP:  42; 6HR MAX TEMP:  52;

-EAGLE CREEK   CLEAR     40  37  89 CALM      30.27R
6HR MIN TEMP:  40; 6HR MAX TEMP:  49;

KOKOMO *+      CLEAR     36  30  80 E3        30.29S
MT COMFORT *+  CLEAR     37 N/A N/A CALM      30.28R
SHELBYVILLE    CLEAR     36  33  89 E3        30.27R FOG
6HR MIN TEMP:  36; 6HR MAX TEMP:  48;


$$

INZ033-034-041-042-049-050-058-059-230700-
EAST CENTRAL INDIANA

CITY           SKY/WX    TMP DP  RH WIND       PRES   REMARKS
MUNCIE         CLEAR     36  34  92 CALM      30.28R FOG
6HR MIN TEMP:  36; 6HR MAX TEMP:  45;


$$

INZ060-061-067>069-081>083-085>088-230700-
SOUTHWEST INDIANA

CITY           SKY/WX    TMP DP  RH WIND       PRES   REMARKS
EVANSVILLE     CLEAR     42  39  89 N3        30.26R
6HR MIN TEMP:  41; 6HR MAX TEMP:  52;

HUNTINGBURG *+ CLEAR     41  36  81 E3        30.26S
6HR MIN TEMP:  41; 6HR MAX TEMP:  52;


$$

INZ062-063-066-070>080-084-089>092-230700-
SOUTH CENTRAL AND SOUTHEAST INDIANA

CITY           SKY/WX    TMP DP  RH WIND       PRES   REMARKS
BLOOMINGTON    CLEAR     37  35  92 CALM      30.27R
6HR MIN TEMP:  36; 6HR MAX TEMP:  46;

SEYMOUR +      CLEAR     37  36  93 CALM      30.28R

$$




USA.gov is the U.S. government's official web portal to all federal, state and local government web resources and services.